Temperature
21 20 20 20 20 20 19 19 19 19 19 18 18 18 18 18 18 18 17 17 17 17 17 17 17 17 17 17 17 17 17 17 16 16 16 16 16 16 16 16 15 15 15
21 20 20 20 20 20 19 19 19 19 18 18 18 18 18 18 18 17 17 17 17 17 16 16 16 16 16 16 16 16 16 16 16 16 16 16 16 16 16 16 15 15 15
21 20 20 20 20 19 19 19 19 19 18 18 18 18 18 17 17 17 17 17 17 17 16 16 16 16 16 16 16 16 16 16 16 15 15 16 16 15 15 15 15 15 15
20 20 20 20 19 19 19 19 19 18 18 18 18 18 18 17 17 17 17 17 17 16 16 16 16 16 16 15 15 15 15 15 15 15 15 15 15 15 15 15 15 15 14
20 20 20 19 19 19 19 19 18 18 18 18 18 18 18 17 17 17 17 16 16 16 16 16 16 16 15 15 15 15 15 15 15 15 15 15 15 15 15 15 14 14 14
20 20 19 19 19 19 19 18 18 18 18 18 18 18 17 17 17 17 17 16 16 16 16 16 15 15 15 15 15 15 15 15 15 15 15 14 14 14 14 14 14 14 14
19 19 19 19 19 19 18 18 18 18 18 18 17 17 17 17 17 16 16 16 16 15 15 15 15 15 15 15 15 15 15 15 15 15 14 14 14 14 14 14 14 14 14
19 19 19 19 18 18 18 18 18 17 17 17 17 17 17 17 17 16 16 16 15 15 15 15 15 15 15 15 15 15 15 15 15 14 14 14 14 14 14 14 13 13 13
19 18 18 18 18 18 18 17 17 17 17 17 17 17 17 17 17 16 16 16 15 15 15 15 15 15 15 14 14 14 14 14 14 14 14 14 14 14 14 13 13 13 13
18 18 18 18 18 17 17 17 17 17 17 17 17 17 16 16 16 16 16 15 15 15 15 15 15 15 15 14 14 14 14 14 14 14 14 14 14 14 13 13 13 13 13
18 18 17 17 17 17 17 17 17 17 16 16 16 16 16 16 16 16 16 15 15 14 14 14 14 14 14 14 14 14 14 14 14 13 14 13 13 13 13 13 13 13 13
18 17 17 17 17 17 17 17 16 16 16 16 16 16 16 15 16 16 16 15 15 14 14 14 14 14 14 14 14 14 14 14 13 13 13 13 13 13 13 13 13 13 13
17 17 17 17 17 17 16 16 16 16 16 16 15 15 15 15 15 15 15 15 14 14 14 14 14 14 14 14 14 14 14 13 13 13 13 13 13 13 13 12 12 12 12
17 17 16 16 16 16 16 16 16 16 16 15 15 15 15 15 15 15 15 14 14 14 14 14 14 14 13 13 13 14 14 13 13 13 13 13 13 13 12 12 12 12 12
16 16 16 16 16 16 16 16 16 16 16 15 15 15 15 15 15 15 14 14 14 13 13 13 13 13 13 13 13 13 13 13 13 13 13 13 13 12 12 12 12 12 12
16 16 16 16 16 16 16 16 16 16 16 16 15 15 15 15 14 14 14 14 13 13 13 13 13 13 13 13 13 13 13 13 13 13 13 12 12 12 12 12 12 12 12
16 15 15 15 15 16 16 16 15 15 15 15 15 15 15 15 14 14 14 14 13 13 13 13 13 13 13 13 13 13 13 13 13 13 12 12 12 12 12 12 12 12 12
15 15 15 15 15 15 15 15 15 15 15 15 15 15 15 14 14 14 14 13 13 13 12 12 12 12 12 12 12 12 12 12 12 12 12 12 12 12 12 12 12 12 12
14 14 15 15 15 15 15 15 15 15 15 15 15 14 14 14 14 14 13 13 13 12 12 12 12 12 12 12 12 12 12 12 12 12 12 12 12 12 12 12 11 11 11
14 14 15 14 15 15 15 15 15 15 15 14 14 14 14 14 14 13 13 13 13 12 12 12 12 12 12 12 12 12 12 11 12 12 12 11 11 11 11 11 11 11 11
14 14 14 14 14 14 14 14 14 14 14 14 14 14 13 13 13 13 13 13 12 12 12 12 12 12 11 11 11 11 11 11 11 11 11 11 11 11 11 11 11 11 11
14 14 14 14 14 14 14 14 14 14 14 14 14 13 13 13 13 12 12 12 12 12 12 12 12 11 11 11 11 11 11 11 11 11 11 11 11 11 11 11 11 11 10
13 13 13 14 14 14 14 14 13 13 13 13 13 13 13 13 13 12 12 12 12 12 12 11 11 11 11 11 11 11 11 11 11 11 11 10 10 10 10 10 10 10 10
13 13 13 13 13 13 13 13 13 13 13 13 13 13 13 12 12 12 12 12 11 11 11 11 11 11 11 11 11 10 10 10 11 11 10 10 10 10 10 10 10 10 10
13 13 13 13 13 13 13 13 13 13 13 13 13 13 12 12 12 12 11 11 11 11 11 10 10 10 10 10 10 10 10 10 10 10 10 10 10 10 10 9 9 9 9
13 13 13 12 12 12 12 12 12 12 12 12 12 12 12 12 11 11 11 11 11 10 10 10 10 10 10 10 10 10 10 10 10 10 10 10 9 9 9 9 9 9 9
Wind_Speed
6 5 4 4 4 3 3 2 1 1 1 1 1 1 1 1 1 1 2 2 2 2 3 2 3 3 3 4 3 3 3 2 2 2 2 1 1 1 2 3 4 5 5
6 5 4 4 4 4 3 3 2 2 2 1 1 1 2 1 1 1 2 2 2 2 2 3 3 3 4 4 4 4 3 3 2 3 3 2 2 2 2 3 3 3 4
6 7 5 5 4 4 3 2 2 2 2 2 2 2 2 2 1 2 2 2 3 2 2 3 3 3 4 4 4 4 4 3 2 3 4 2 2 2 2 2 2 2 3
4 5 5 5 5 4 3 3 3 3 3 2 2 2 2 2 1 1 2 2 2 2 2 3 3 3 3 4 4 4 4 4 3 3 3 3 2 2 1 2 2 2 2
4 3 3 4 3 3 3 3 2 3 3 2 2 2 2 2 2 1 2 3 2 3 3 2 2 2 3 4 4 4 4 4 3 3 3 2 2 2 3 3 2 2 2
4 3 3 3 3 2 2 2 2 2 2 2 3 2 2 4 3 2 3 3 3 3 3 2 3 2 2 3 4 4 4 4 4 4 3 3 3 2 2 3 3 2 2
3 2 2 2 2 2 2 2 2 2 2 3 3 3 3 2 2 2 3 3 3 3 2 2 4 3 2 3 4 4 4 5 5 4 4 3 3 3 2 3 3 3 3
3 3 2 2 2 2 2 2 2 2 3 3 3 3 3 3 3 3 4 4 4 3 2 2 2 2 3 3 4 3 3 4 4 3 3 4 3 2 2 4 4 4 4
3 2 2 2 2 2 3 3 3 3 3 3 3 3 3 3 4 4 4 3 3 3 3 3 3 3 4 4 3 3 3 3 3 2 3 3 3 4 3 3 3 3 4
3 2 2 2 2 2 3 3 3 3 3 3 3 3 3 3 4 4 3 3 3 4 4 4 5 4 3 3 3 3 4 4 4 3 2 3 4 3 3 3 3 4 3
2 2 2 2 3 2 3 3 3 3 3 3 3 3 3 4 4 4 5 3 3 4 4 3 3 4 4 4 4 4 6 5 4 4 4 3 3 2 3 3 2 2 3
2 2 2 2 3 3 2 3 3 3 3 4 4 4 3 3 3 4 5 5 4 4 4 3 3 3 5 6 5 6 7 6 5 4 4 3 3 3 3 3 3 3 3
2 2 3 3 2 2 3 3 4 4 4 4 4 3 3 2 2 3 5 6 6 5 4 4 4 4 4 5 7 7 6 5 5 4 4 3 2 3 2 3 4 4 4
2 2 2 2 3 3 3 3 3 3 3 3 3 3 3 2 0 0 1 3 4 5 5 5 5 5 5 5 4 4 4 4 4 4 3 3 2 2 2 2 3 2 2
2 2 3 4 4 3 2 3 3 2 2 3 3 2 2 2 1 2 1 2 3 3 3 3 3 2 3 4 4 4 4 3 4 4 4 3 3 2 3 2 2 3 3
2 3 4 4 3 3 3 3 2 4 4 4 3 2 1 2 2 2 3 4 4 4 3 4 4 4 4 4 3 3 3 3 3 3 3 3 3 3 3 2 2 2 3
3 3 4 4 4 3 3 3 3 3 3 4 4 4 4 4 4 4 5 5 4 3 3 4 4 4 4 3 3 3 3 3 3 3 3 4 3 3 3 2 2 2 3
4 4 4 4 5 5 4 4 4 3 3 3 4 5 5 5 6 6 4 2 3 2 3 4 4 4 3 3 3 3 3 2 2 3 3 3 3 3 3 3 2 3 3
4 4 3 4 5 4 4 4 4 3 3 2 1 2 4 5 5 6 3 3 4 3 3 3 3 3 4 3 3 3 3 3 3 3 3 3 3 3 3 3 3 3 3
4 5 5 5 5 4 4 3 3 2 2 3 2 1 2 3 3 3 4 5 4 3 3 3 3 4 4 3 3 3 3 3 3 3 3 3 3 3 3 4 3 3 3
5 5 6 5 5 4 4 3 3 3 3 3 3 1 3 3 4 3 3 3 3 3 3 3 3 4 4 3 3 4 4 4 3 3 3 3 3 3 4 3 3 3 3
5 4 4 3 3 3 3 3 3 3 4 4 3 2 5 4 3 2 2 3 2 2 2 3 3 4 4 3 3 4 4 3 4 4 4 3 3 3 3 3 3 3 3
4 4 4 2 2 2 3 3 4 4 4 4 3 1 2 3 2 2 2 2 2 2 2 2 3 3 3 3 3 3 3 3 4 4 4 3 3 3 3 4 4 4 3
4 4 4 3 3 3 3 4 4 4 4 4 3 2 2 2 2 2 1 2 2 2 2 2 3 4 4 3 4 4 4 4 4 4 4 3 3 4 3 3 4 4 3
4 4 3 3 4 4 4 4 4 3 3 3 3 2 2 2 2 1 1 1 1 2 2 2 2 3 5 5 5 4 4 4 4 3 3 3 3 4 3 3 3 3 2
4 4 4 3 4 4 3 3 3 3 3 3 2 2 2 2 2 2 1 1 2 2 2 2 3 3 4 4 5 4 3 3 4 3 2 2 2 3 3 3 3 3 2
Wind_Direction
173 177 176 178 183 186 198 219 226 255 275 243 252 267 262 258 276 283 290 299 292 299 306 316 316 315 318 317 315 310 306 297 282 299 309 313 321 316 179 205 204 189 196
171 174 184 182 182 192 202 206 213 225 237 232 245 272 271 261 247 262 277 291 293 295 303 310 313 319 322 314 315 311 311 308 288 285 289 274 252 235 219 229 235 214 195
173 181 184 186 186 195 208 204 210 225 237 242 235 245 258 265 260 268 271 279 284 294 299 295 306 314 315 315 309 304 304 304 300 291 286 281 267 255 253 260 258 254 229
168 184 182 186 182 192 206 204 202 214 228 236 245 248 243 244 263 273 285 275 287 302 303 301 304 304 308 307 300 301 303 298 287 282 280 271 275 276 261 256 267 270 272
167 186 175 171 165 180 195 203 205 218 233 234 239 253 248 229 253 251 264 259 266 279 284 287 298 325 333 322 310 316 312 301 292 280 278 284 298 315 297 282 275 264 267
180 186 169 169 165 181 197 205 216 230 243 245 242 239 248 257 252 231 243 265 254 255 260 264 256 267 292 294 301 309 305 296 296 293 293 294 298 302 300 300 300 300 292
183 174 161 172 183 195 224 218 227 243 253 255 250 234 241 256 257 254 265 256 264 264 254 263 276 287 282 290 285 278 288 295 282 275 286 288 293 303 305 301 305 299 283
183 176 169 178 206 212 224 236 240 246 248 249 253 250 248 256 249 244 260 247 261 254 246 250 265 285 298 309 300 302 301 308 291 268 266 277 283 291 277 274 274 272 268
191 190 192 199 215 218 226 235 238 247 253 250 254 246 241 250 247 238 235 246 250 247 238 247 252 250 281 302 293 297 298 294 294 271 252 273 282 294 303 297 292 285 277
197 199 212 220 236 233 240 244 249 249 247 250 254 254 244 239 234 220 217 249 259 256 246 237 243 247 266 277 276 282 287 292 297 297 284 270 260 264 274 272 281 281 283
184 191 211 228 247 234 243 246 251 257 255 253 257 255 244 228 210 203 202 236 262 266 259 246 241 231 237 244 254 267 271 280 281 274 262 247 244 247 251 250 256 267 279
178 202 210 225 254 254 254 259 252 248 248 242 246 255 254 228 194 197 207 231 275 277 273 274 270 242 241 241 246 266 274 280 274 271 267 256 247 248 240 225 224 238 249
192 215 231 234 250 274 255 256 255 245 246 251 246 249 259 252 212 201 219 239 260 275 297 304 293 254 257 247 243 255 262 263 264 265 269 264 246 243 240 234 233 230 239
223 229 237 239 248 257 253 255 257 268 274 272 271 267 272 265 266 220 235 248 256 267 286 293 272 252 258 267 260 248 247 257 263 269 277 276 272 254 249 249 253 244 234
240 247 252 252 246 250 247 265 262 271 265 276 297 303 296 289 310 3 331 296 286 278 282 266 254 255 253 249 242 242 244 245 252 261 265 271 274 266 264 263 262 266 257
247 260 267 270 262 248 243 253 259 239 226 218 213 231 243 212 221 253 272 275 275 288 282 262 259 256 260 262 255 254 251 257 260 263 269 271 272 271 272 261 255 261 263
257 261 270 271 268 258 256 254 252 251 242 235 220 209 214 217 217 231 251 274 277 253 257 263 262 262 264 271 271 262 257 256 257 261 267 273 275 278 279 273 264 264 263
265 260 263 269 266 259 255 259 258 252 246 249 236 217 211 214 223 233 241 266 267 232 256 268 272 273 270 272 277 279 272 263 259 268 273 272 265 267 278 278 270 268 269
267 275 269 270 272 272 268 264 262 259 263 258 218 220 219 222 234 243 224 239 257 255 253 259 270 277 275 270 274 277 273 266 267 266 268 271 278 274 274 273 272 267 263
253 263 269 273 277 280 275 274 282 291 288 287 275 212 180 211 243 235 215 234 247 256 267 272 275 277 277 273 266 271 276 272 267 270 272 276 279 283 281 273 273 269 263
267 256 248 260 268 277 286 285 285 287 291 297 290 249 184 225 247 253 240 233 240 254 265 274 279 282 280 271 269 268 272 277 276 277 277 273 278 274 272 274 275 277 274
285 293 274 256 266 277 287 287 286 278 270 269 270 252 197 229 253 267 283 281 272 262 265 263 268 275 281 281 277 277 277 281 290 291 290 285 282 280 278 280 281 275 267
285 292 297 299 285 282 279 274 273 274 277 275 274 261 212 245 261 256 262 274 287 288 286 291 288 295 305 309 312 304 302 302 297 294 287 281 282 280 279 276 274 277 275
275 279 286 298 298 289 288 287 284 288 293 298 300 285 242 256 273 283 288 290 287 295 320 330 323 324 336 341 329 329 329 319 307 290 280 273 269 269 269 268 270 269 267
276 277 277 278 281 283 283 288 293 301 304 304 313 315 310 296 299 308 305 293 290 291 310 330 335 337 336 334 329 325 344 344 338 321 293 272 274 276 274 270 269 269 254
266 273 278 284 287 285 285 290 294 298 299 300 307 320 318 319 319 318 315 312 313 317 317 332 352 354 338 330 327 348 4 354 336 318 289 273 278 289 293 284 277 267 260
Height
1523 1524 1525 1526 1527 1528 1529 1530 1530 1530 1531 1530 1530 1530 1530 1529 1529 1528 1528 1527 1527 1526 1525 1525 1524 1523 1523 1522 1521 1521 1521 1520 1519 1518 1518 1517 1517 1516 1514 1513 1511 1510 1509
1521 1523 1524 1525 1526 1526 1527 1528 1528 1528 1529 1529 1529 1528 1528 1527 1527 1526 1526 1525 1525 1524 1524 1523 1522 1522 1521 1520 1519 1519 1518 1518 1517 1515 1515 1514 1514 1513 1512 1510 1509 1508 1507
1520 1521 1522 1523 1524 1525 1525 1526 1526 1526 1526 1527 1527 1526 1526 1525 1525 1524 1524 1523 1523 1522 1522 1521 1520 1519 1518 1518 1517 1516 1516 1515 1514 1513 1512 1512 1511 1510 1509 1508 1507 1506 1505
1519 1520 1521 1521 1522 1522 1523 1524 1524 1524 1524 1524 1524 1524 1523 1523 1522 1522 1521 1521 1520 1520 1519 1518 1518 1517 1516 1515 1514 1514 1513 1512 1511 1510 1509 1509 1508 1507 1506 1505 1504 1503 1502
1517 1518 1519 1520 1520 1521 1522 1522 1522 1522 1522 1521 1521 1521 1520 1520 1519 1519 1519 1518 1518 1517 1517 1516 1515 1515 1513 1513 1512 1511 1510 1509 1508 1507 1506 1506 1505 1504 1503 1502 1501 1500 1499
1516 1517 1517 1518 1518 1519 1519 1519 1519 1519 1519 1519 1518 1518 1517 1517 1517 1516 1516 1515 1515 1514 1514 1513 1513 1512 1511 1510 1509 1508 1507 1506 1505 1504 1504 1503 1502 1501 1500 1499 1498 1496 1495
1514 1515 1516 1516 1517 1517 1517 1517 1517 1517 1517 1516 1516 1515 1514 1514 1514 1513 1513 1512 1512 1512 1511 1511 1510 1509 1508 1507 1506 1505 1504 1503 1503 1502 1500 1499 1499 1498 1497 1495 1494 1494 1493
1513 1513 1514 1514 1515 1515 1515 1515 1515 1514 1514 1513 1513 1512 1511 1511 1511 1510 1510 1509 1509 1508 1508 1508 1507 1506 1505 1504 1503 1501 1500 1500 1499 1498 1497 1496 1495 1495 1494 1493 1492 1491 1490
1511 1511 1512 1512 1512 1512 1512 1512 1512 1511 1511 1510 1510 1509 1508 1508 1508 1507 1507 1506 1505 1505 1505 1504 1504 1503 1502 1501 1500 1498 1497 1496 1496 1495 1494 1493 1492 1492 1491 1490 1489 1488 1486
1508 1509 1509 1510 1510 1510 1510 1509 1509 1509 1508 1507 1507 1506 1505 1505 1504 1504 1503 1503 1502 1502 1501 1501 1500 1499 1498 1498 1497 1496 1494 1494 1493 1492 1491 1490 1489 1488 1487 1487 1486 1485 1484
1506 1507 1507 1508 1508 1508 1508 1507 1507 1506 1505 1505 1504 1503 1502 1502 1501 1500 1500 1499 1499 1498 1498 1497 1497 1496 1495 1494 1494 1493 1492 1491 1491 1490 1488 1487 1487 1485 1484 1484 1483 1482 1481
1504 1504 1505 1505 1506 1506 1505 1505 1504 1503 1502 1502 1501 1500 1500 1499 1498 1497 1496 1496 1496 1495 1494 1494 1494 1493 1492 1491 1490 1490 1489 1489 1488 1487 1486 1485 1484 1483 1482 1481 1481 1480 1479
1501 1502 1502 1502 1502 1502 1502 1502 1501 1500 1500 1499 1499 1498 1497 1496 1495 1494 1493 1492 1492 1492 1491 1491 1490 1490 1489 1488 1487 1487 1486 1486 1485 1484 1483 1482 1481 1481 1480 1479 1478 1476 1476
1499 1499 1499 1499 1499 1499 1499 1498 1498 1498 1497 1497 1496 1495 1494 1493 1492 1491 1490 1489 1489 1488 1488 1487 1487 1486 1485 1485 1484 1483 1483 1482 1482 1481 1480 1479 1479 1478 1477 1476 1475 1474 1473
1495 1496 1496 1496 1496 1496 1495 1495 1494 1494 1494 1494 1493 1492 1491 1490 1489 1488 1487 1486 1485 1485 1484 1483 1483 1483 1482 1481 1480 1479 1479 1479 1478 1478 1477 1476 1476 1475 1474 1474 1473 1472 1470
1492 1493 1493 1493 1493 1492 1492 1491 1490 1491 1491 1490 1489 1489 1488 1487 1486 1485 1485 1484 1483 1482 1481 1480 1480 1480 1479 1478 1477 1477 1476 1476 1475 1475 1474 1474 1473 1472 1471 1470 1470 1469 1468
1490 1489 1489 1490 1489 1489 1489 1488 1487 1487 1486 1486 1486 1485 1484 1483 1482 1482 1481 1480 1479 1478 1478 1477 1477 1477 1476 1476 1475 1474 1473 1473 1472 1472 1471 1470 1470 1469 1468 1467 1466 1465 1464
1487 1486 1486 1486 1486 1485 1485 1484 1484 1483 1482 1482 1481 1481 1481 1480 1479 1478 1478 1477 1476 1475 1474 1474 1474 1474 1473 1472 1471 1471 1470 1470 1470 1469 1468 1467 1467 1466 1465 1464 1463 1462 1461
1484 1484 1483 1483 1483 1483 1482 1482 1481 1480 1480 1479 1477 1477 1477 1477 1476 1475 1474 1473 1473 1472 1472 1471 1470 1470 1470 1469 1468 1468 1467 1467 1466 1465 1465 1464 1463 1462 1461 1460 1460 1458 1457
1481 1481 1480 1480 1480 1480 1479 1478 1478 1477 1476 1476 1475 1473 1473 1473 1473 1472 1471 1470 1469 1469 1469 1468 1467 1467 1466 1466 1465 1464 1463 1463 1462 1462 1461 1460 1460 1459 1458 1457 1456 1455 1454
1479 1478 1477 1477 1477 1476 1476 1475 1474 1474 1473 1472 1472 1471 1470 1470 1470 1469 1468 1467 1466 1465 1465 1464 1463 1463 1462 1462 1461 1460 1459 1459 1458 1457 1457 1456 1455 1455 1454 1453 1452 1451 1451
1476 1475 1475 1474 1473 1473 1472 1472 1472 1471 1470 1469 1468 1467 1467 1467 1466 1465 1464 1464 1463 1462 1462 1461 1460 1459 1458 1458 1457 1456 1455 1454 1453 1453 1452 1451 1451 1450 1450 1449 1449 1448 1447
1473 1472 1472 1471 1470 1470 1469 1469 1468 1468 1467 1466 1465 1464 1463 1463 1462 1462 1461 1460 1460 1459 1458 1457 1456 1455 1455 1454 1453 1452 1451 1450 1449 1448 1448 1447 1447 1446 1446 1446 1445 1445 1444
1470 1470 1469 1469 1468 1467 1467 1466 1465 1464 1463 1463 1462 1461 1460 1460 1459 1459 1458 1457 1456 1455 1454 1453 1452 1451 1450 1450 1449 1448 1447 1446 1445 1444 1444 1443 1442 1442 1442 1442 1441 1441 1441
1468 1467 1467 1467 1466 1465 1465 1463 1463 1462 1461 1460 1460 1459 1458 1457 1456 1456 1455 1454 1453 1452 1451 1450 1449 1447 1446 1445 1445 1443 1443 1442 1441 1440 1439 1439 1439 1438 1438 1438 1438 1438 1438
1465 1465 1464 1464 1464 1463 1462 1461 1460 1460 1459 1458 1457 1456 1456 1455 1454 1453 1452 1451 1450 1449 1448 1447 1445 1444 1442 1441 1439 1439 1438 1437 1437 1436 1435 1434 1434 1434 1434 1435 1435 1435 1434